This is the latest recevied weather packets stored in our database for station/object SV2RCS-13. If no packets are shown the sender has not sent any weather packets the latest 10 day(s).
| Time | Temp. | Humidity | Pressure | Rain* | Wind** | Luminosity | Snow |
|---|---|---|---|---|---|---|---|
| 1777004813 | 12.22° C | 33% | 1015.2 hPa | - | - | - | - |
| 1777004216 | 10° C | 37% | 1015.2 hPa | - | - | - | - |
| 1777003613 | 8.33° C | 37% | 1015.4 hPa | - | - | - | - |
| 1777003013 | 7.78° C | 38% | 1015.6 hPa | - | - | - | - |
| 1777002413 | 7.78° C | 38% | 1015.7 hPa | - | - | - | - |
| 1777001812 | 7.78° C | 38% | 1015.7 hPa | - | - | - | - |
| 1777001213 | 7.78° C | 38% | 1015.8 hPa | - | - | - | - |
| 1777000613 | 7.78° C | 39% | 1015.7 hPa | - | - | - | - |
| 1777000013 | 7.78° C | 38% | 1015.7 hPa | - | - | - | - |
| 1776999413 | 7.78° C | 38% | 1015.6 hPa | - | - | - | - |
| 1776998813 | 7.78° C | 38% | 1015.7 hPa | - | - | - | - |
| 1776998213 | 7.78° C | 38% | 1015.7 hPa | - | - | - | - |
| 1776997612 | 7.78° C | 37% | 1015.6 hPa | - | - | - | - |
| 1776997012 | 7.78° C | 37% | 1015.5 hPa | - | - | - | - |
| 1776996412 | 7.78° C | 38% | 1015.5 hPa | - | - | - | - |
| 1776995813 | 7.78° C | 38% | 1015.5 hPa | - | - | - | - |
| 1776995212 | 7.78° C | 37% | 1015.6 hPa | - | - | - | - |
| 1776994613 | 7.78° C | 39% | 1015.7 hPa | - | - | - | - |
| 1776994012 | 7.78° C | 39% | 1015.6 hPa | - | - | - | - |
| 1776993413 | 7.78° C | 37% | 1015.6 hPa | - | - | - | - |
| 1776992815 | 8.33° C | 37% | 1015.6 hPa | - | - | - | - |
| 1776992212 | 8.33° C | 37% | 1015.5 hPa | - | - | - | - |
| 1776991612 | 8.33° C | 37% | 1015.5 hPa | - | - | - | - |
| 1776991012 | 8.33° C | 37% | 1015.4 hPa | - | - | - | - |
| 1776990412 | 8.33° C | 37% | 1015.4 hPa | - | - | - | - |
* Rain since midnight (hover to see other rain measurements)
** Current wind speed in m/s (hover to see current wind gust speed)